Location: Dampvalley
(47.9094°N, 6.1967°E)
Time: 01:13:57
(UTC+00:00)

SO-50 - Pass Details

Date: 08 December 2021
Orbit: 595 x 689 km, 64.6° (Epoch: 24 January)

Event Time Altitude Azimuth Distance (km) Brightness Sun altitude
Rises 06:07:14 0° 172° (S) 2,861 ? -10.3°
Reaches altitude 10° 06:10:05 10° 153° (SSE) 1,978 ? -9.9°
Maximum altitude 06:13:02 17° 111° (ESE) 1,569 ? -9.4°
Drops below altitude 10° 06:16:02 10° 70° (ENE) 2,027 ? -9.0°
Sets 06:19:00 0° 51° (NE) 2,963 ? -8.5°
